Regional Weather Roundup
Issued by NWS

Home | Current Version | Previous Version | Text Only | Print | Product List | Glossary On
Versions: 1 2 3 4 5 6 7 8 9 10 11 12 13 14 15 16 17 18 19 20 21 22 23 24 25 26 27 28 29 30 31 32 33 34 35 36 37 38 39 40 41 42 43 44 45 46 47 48 49 50
527
ASUS45 KBOI 051710
RWRID

IDAHO REGIONAL WEATHER ROUNDUP
NATIONAL WEATHER SERVICE BOISE ID
1100 AM MDT THU MAY 05 2016

NOTE: "FAIR" INDICATES FEW OR NO CLOUDS BELOW 12000 FEET
WITH NO SIGNIFICANT WEATHER AND/OR OBSTRUCTIONS TO VISIBILITY

IDZ012-014-051800-
SOUTHWEST IDAHO


CITY           SKY/WX    TMP DP  RH WIND       PRES   REMARKS
BOISE          CLOUDY    61  45  55 W5        29.87S
CALDWELL       CLOUDY    63  48  58 W9        29.87S
MOUNTAIN HOME  CLOUDY    66  44  45 NW7       29.86F
$$

IDZ016-017-051800-
SOUTHCENTRAL IDAHO


CITY           SKY/WX    TMP DP  RH WIND       PRES   REMARKS
BURLEY         PTSUNNY   63  43  48 W8        29.91F
JEROME         CLOUDY    61  45  55 S8        29.92F
TWIN FALLS     CLOUDY    63  43  48 VRB3      29.92S
$$

IDZ019>023-051800-
SOUTHEAST IDAHO


CITY           SKY/WX    TMP DP  RH WIND       PRES   REMARKS
IDAHO FALLS    CLOUDY    67  43  41 NW7       29.98S
POCATELLO      CLOUDY    70  44  39 NE7       29.95S
REXBURG        CLOUDY    68  37  32 NE3       29.99S
$$

IDZ006-010-011-018-031-032-051800-
CENTRAL IDAHO MOUNTAINS


CITY           SKY/WX    TMP DP  RH WIND       PRES   REMARKS
MCCALL         CLOUDY    59  44  57 W6        29.91F
HAILEY         MOSUNNY   66  37  34 E5        29.98F
STANLEY          N/A     56  35  45 N6        30.01F
SALMON         CLOUDY    61  36  39 CALM      29.94F
CHALLIS        PTSUNNY   62  33  33 CALM      29.96F
$$

IDZ002-004-006-007-026-051800-
NORTHERN IDAHO


CITY           SKY/WX    TMP DP  RH WIND       PRES   REMARKS
LEWISTON       SUNNY     66  52  60 CALM      29.90S
LOWELL           N/A     69  51  52 CALM      29.87F
COEUR D`ALENE  MOSUNNY   61  52  72 CALM      29.92S
MULLAN PASS    MOSUNNY   52  40  63 CALM      30.01S
$$




USA.gov is the U.S. government's official web portal to all federal, state and local government web resources and services.